FW5335 Weather Reports


Display with metric or nautical units.
time (UTC)temp
F
wind
direction
speed
MPH
gust
MPH
rain 1hr
in
rain 24hr
in
rain mn
in
humidity
%
barometer
mb
20260905093516 64 270 3.0 7.0 0.00 0.00 0.00 66 1025.9
20260905092518 64 248 4.0 9.0 0.00 0.00 0.00 68 1025.8
20260905091525 64 248 2.0 5.0 0.00 0.00 0.00 70 1026.0
20260905090518 63 248 2.0 6.0 0.00 0.00 0.00 71 1025.8
20260905085521 63 225 3.0 6.0 0.00 0.00 0.00 72 1026.0
20260905084518 62 270 3.0 7.0 0.00 0.00 0.00 73 1025.7
20260905083518 61 270 3.0 7.0 0.00 0.00 0.00 73 1025.6
20260905082540 61 270 4.0 7.0 0.00 0.00 0.00 74 1025.4
20260905081520 61 270 2.0 5.0 0.00 0.00 0.00 74 1025.1
20260905080520 60 270 3.0 7.0 0.00 0.00 0.00 74 1025.2
20260905075519 60 270 2.0 7.0 0.00 0.00 0.00 75 1025.2
20260905074541 60 293 1.0 3.0 0.00 0.00 0.00 77 1024.9
20260905073519 59 0.0 2.0 0.00 0.00 0.00 79 1024.9
20260905072520 58 270 1.0 3.0 0.00 0.00 0.00 81 1024.8
20260905071518 57 248 2.0 5.0 0.00 0.00 0.00 81 1024.8
20260905070521 57 225 1.0 3.0 0.00 0.00 0.00 82 1024.6
20260905065525 56 248 2.0 4.0 0.00 0.00 0.00 82 1024.7
20260905064519 55 248 3.0 7.0 0.00 0.00 0.00 84 1024.6
20260905063538 55 248 2.0 4.0 0.00 0.00 0.00 84 1024.5
20260905062521 55 0 1.0 4.0 0.00 0.00 0.00 84 1024.4
20260905061518 54 225 1.0 3.0 0.00 0.00 0.00 83 1024.4
20260905060519 55 225 2.0 5.0 0.00 0.00 0.00 82 1024.3
20260905055518 55 248 2.0 4.0 0.00 0.00 0.00 82 1024.2
20260905054522 55 248 1.0 3.0 0.00 0.03 0.00 82 1024.1
20260905053520 55 225 1.0 4.0 0.00 0.03 0.00 83 1023.9
20260905052523 55 248 1.0 3.0 0.00 0.03 0.00 84 1023.8
20260905051518 55 248 3.0 6.0 0.00 0.03 0.00 85 1023.7
20260905050518 55 225 4.0 7.0 0.00 0.03 0.00 86 1023.7
20260905045539 55 225 5.0 10.0 0.00 0.03 0.00 88 1023.4
20260905044518 54 225 4.0 8.0 0.00 0.03 0.00 89 1023.4
20260905043520 53 225 5.0 9.0 0.00 0.03 0.00 89 1023.4
20260905042519 53 225 3.0 6.0 0.00 0.03 0.00 89 1023.2
20260905041540 53 225 3.0 8.0 0.00 0.03 0.00 89 1023.3
20260905040519 53 225 4.0 9.0 0.00 0.03 0.00 89 1023.0
20260905035525 53 248 3.0 7.0 0.00 0.03 0.00 90 1023.0
20260905034519 53 225 3.0 7.0 0.00 0.03 0.00 90 1022.9
20260905033519 53 248 2.0 8.0 0.00 0.03 0.00 90 1022.8
20260905032519 52 248 2.0 5.0 0.00 0.03 0.00 90 1022.6
20260905031518 52 248 2.0 6.0 0.00 0.03 0.00 88 1022.7
20260905030519 52 0.0 1.0 0.00 0.03 0.00 87 1022.6
20260905025517 53 0 1.0 2.0 0.00 0.03 0.00 87 1022.5
20260905024519 53 0 2.0 3.0 0.00 0.03 0.00 87 1022.4
20260905023601 53 23 1.0 2.0 0.00 0.03 0.00 87 1022.5
20260905022520 54 248 1.0 2.0 0.00 0.03 0.00 87 1022.4
20260905021519 54 248 2.0 7.0 0.00 0.03 0.00 87 1022.2
20260905020517 54 248 2.0 5.0 0.00 0.03 0.00 87 1022.2
20260905015520 54 225 3.0 6.0 0.00 0.03 0.00 87 1022.2
20260905014522 54 225 3.0 6.0 0.00 0.03 0.00 87 1022.2
20260905013519 54 248 3.0 7.0 0.00 0.03 0.00 87 1022.3
20260905012517 54 248 3.0 5.0 0.00 0.03 0.00 87 1022.3
20260905011519 54 225 2.0 4.0 0.00 0.03 0.00 86 1022.2
20260905010539 54 225 3.0 5.0 0.00 0.03 0.00 86 1022.1
20260905005519 54 225 2.0 8.0 0.00 0.03 0.00 86 1022.1
20260905004538 55 225 3.0 5.0 0.00 0.03 0.00 85 1022.2
20260905003517 55 248 3.0 5.0 0.00 0.03 0.00 85 1022.1
20260905002519 55 225 3.0 5.0 0.00 0.03 0.00 85 1022.1
20260905001519 55 225 3.0 7.0 0.00 0.03 0.00 85 1022.0
20260905000517 55 225 4.0 8.0 0.00 0.03 0.00 85 1021.8
20260904235518 55 225 4.0 9.0 0.00 0.03 0.00 85 1021.7
20260904234518 55 225 4.0 7.0 0.00 0.03 0.00 85 1021.7
20260904233519 55 225 4.0 7.0 0.00 0.03 0.00 85 1021.6
20260904232537 55 225 4.0 7.0 0.00 0.03 0.00 84 1021.6
20260904231528 55 225 3.0 5.0 0.00 0.03 0.00 84 1021.7
20260904230523 55 225 3.0 6.0 0.00 0.03 0.00 83 1021.7
20260904225519 55 225 2.0 5.0 0.00 0.03 0.03 83 1021.6
20260904224517 56 225 3.0 5.0 0.00 0.03 0.03 83 1021.6
20260904223519 56 225 5.0 9.0 0.00 0.03 0.03 83 1021.3
20260904222541 56 225 6.0 11.0 0.00 0.03 0.03 83 1021.5
20260904221517 56 225 5.0 9.0 0.00 0.03 0.03 83 1021.5
20260904220540 56 225 5.0 8.0 0.00 0.03 0.03 83 1021.5
20260904215519 56 225 4.0 9.0 0.00 0.03 0.03 83 1021.4
20260904214523 56 225 4.0 8.0 0.00 0.03 0.03 83 1021.2
20260904213524 56 225 4.0 6.0 0.00 0.03 0.03 83 1020.9
20260904212519 57 225 3.0 6.0 0.00 0.03 0.03 83 1020.9
20260904211519 57 225 4.0 7.0 0.00 0.03 0.03 83 1021.0
20260904210519 57 225 4.0 6.0 0.00 0.03 0.03 82 1021.0
20260904205520 57 225 3.0 6.0 0.00 0.03 0.03 82 1021.0
20260904204517 57 225 4.0 7.0 0.00 0.03 0.03 82 1020.9
20260904203542 57 225 4.0 7.0 0.00 0.03 0.03 81 1020.9
20260904202559 58 225 4.0 7.0 0.00 0.03 0.03 81 1020.9
20260904201518 58 225 3.0 5.0 0.00 0.03 0.03 80 1020.9
20260904200618 58 225 3.0 6.0 0.00 0.03 0.03 79 1020.6
20260904195520 59 225 3.0 6.0 0.00 0.03 0.03 78 1020.6
20260904194518 59 225 3.0 6.0 0.00 0.03 0.03 77 1020.5
20260904193522 60 225 4.0 7.0 0.00 0.03 0.03 76 1020.3
20260904192620 61 225 4.0 6.0 0.00 0.03 0.03 75 1020.4
20260904191520 61 248 3.0 7.0 0.00 0.03 0.03 74 1020.3
20260904190520 61 248 5.0 11.0 0.00 0.03 0.03 73 1020.2
20260904185522 62 248 4.0 10.0 0.00 0.03 0.03 72 1020.2
20260904184520 62 248 6.0 12.0 0.00 0.03 0.03 72 1020.1
20260904183519 63 270 5.0 14.0 0.00 0.03 0.03 71 1020.0
20260904182520 63 248 6.0 12.0 0.00 0.03 0.03 72 1019.8
20260904181524 63 248 7.0 13.0 0.00 0.03 0.03 72 1019.6
20260904180520 63 248 6.0 15.0 0.00 0.03 0.03 72 1019.7
20260904175520 64 225 6.0 15.0 0.00 0.03 0.03 72 1019.7
20260904174601 64 270 5.0 9.0 0.00 0.03 0.03 71 1019.6
20260904173543 63 270 6.0 13.0 0.00 0.03 0.03 71 1019.5
20260904172520 64 248 6.0 16.0 0.00 0.03 0.03 71 1019.3
20260904171619 64 225 6.0 11.0 0.00 0.03 0.03 70 1019.4
20260904170518 64 248 7.0 14.0 0.00 0.03 0.03 69 1019.6
20260904165520 64 248 10.0 17.0 0.00 0.03 0.03 68 1019.3
20260904164520 64 248 7.0 14.0 0.00 0.03 0.03 68 1019.2
20260904163519 64 248 8.0 16.0 0.00 0.03 0.03 68 1019.0
20260904162541 65 248 8.0 15.0 0.00 0.03 0.03 67 1019.0
20260904161521 65 270 7.0 15.0 0.00 0.03 0.03 65 1019.0
20260904160519 65 248 7.0 13.0 0.00 0.03 0.03 63 1019.2
20260904155518 66 248 6.0 11.0 0.00 0.03 0.03 63 1019.3
20260904154519 66 248 7.0 13.0 0.00 0.03 0.03 63 1019.1
20260904153519 66 248 8.0 14.0 0.00 0.03 0.03 62 1019.1
20260904152521 66 248 7.0 13.0 0.00 0.03 0.03 63 1018.8
20260904151520 66 270 7.0 13.0 0.00 0.03 0.03 64 1019.0
20260904150517 66 248 7.0 14.0 0.00 0.03 0.03 62 1019.0
20260904145521 67 248 9.0 16.0 0.00 0.03 0.03 61 1018.7
20260904144559 67 248 7.0 12.0 0.00 0.03 0.03 61 1018.7
20260904143521 67 270 10.0 17.0 0.00 0.03 0.03 62 1018.6
20260904142520 67 270 8.0 14.0 0.00 0.03 0.03 61 1018.6
20260904141518 66 270 10.0 16.0 0.00 0.03 0.03 62 1018.6
20260904140519 66 270 9.0 17.0 0.00 0.03 0.03 63 1018.5
20260904135519 66 270 8.0 16.0 0.00 0.03 0.03 61 1018.3
20260904134520 66 270 8.0 16.0 0.00 0.03 0.03 60 1018.3
20260904133518 67 270 9.0 18.0 0.00 0.03 0.03 60 1018.3
20260904132516 66 270 9.0 17.0 0.00 0.03 0.03 63 1018.1
20260904131516 67 270 5.0 14.0 0.00 0.03 0.03 64 1017.9
20260904130519 67 270 5.0 13.0 0.00 0.03 0.03 65 1017.9
20260904125518 67 293 8.0 16.0 0.00 0.03 0.03 63 1018.0
20260904124520 67 248 5.0 10.0 0.00 0.03 0.03 63 1017.5
20260904123521 67 270 8.0 15.0 0.00 0.03 0.03 60 1017.5
20260904122520 67 270 5.0 11.0 0.00 0.03 0.03 65 1017.6
20260904121517 67 248 9.0 18.0 0.00 0.03 0.03 64 1017.5
20260904120521 68 248 9.0 18.0 0.00 0.03 0.03 65 1017.4
20260904115517 68 270 11.0 20.0 0.00 0.03 0.03 66 1017.4
20260904114519 68 270 10.0 19.0 0.00 0.03 0.03 67 1017.1
20260904113522 68 270 7.0 16.0 0.00 0.03 0.03 68 1017.0
20260904112516 68 270 9.0 17.0 0.00 0.03 0.03 68 1017.0
20260904111523 68 270 11.0 20.0 0.00 0.03 0.03 69 1017.0
20260904110518 68 270 12.0 18.0 0.00 0.03 0.03 71 1016.5
20260904105518 69 248 11.0 20.0 0.00 0.03 0.03 69 1016.6
20260904104516 69 248 10.0 18.0 0.00 0.03 0.03 70 1016.5
20260904103518 68 248 8.0 15.0 0.00 0.03 0.03 72 1016.2
20260904102518 67 248 6.0 15.0 0.00 0.03 0.03 75 1016.2
20260904101520 67 270 9.0 18.0 0.00 0.03 0.03 76 1016.2
20260904100519 67 248 9.0 17.0 0.00 0.03 0.03 75 1016.1
20260904095518 67 248 8.0 16.0 0.00 0.03 0.03 74 1016.1
20260904094520 68 248 9.0 17.0 0.00 0.03 0.03 73 1016.3